Location: Unspecified
(42.1900°N, 71.3291°W)
Time: 10:45:00
(UTC-04:00)

Cosmos 2058 - Visible Passes

Search period start: 27 March 2017 00:00
Search period end: 06 April 2017 00:00
Orbit: 564 x 585 km, 82.5° (Epoch: 25 March)

Date Brightness Start Highest point End Pass type
(mag) Time Alt. Az. Time Alt. Az. Time Alt. Az.
27 Mar 4.0 21:18:51 10° N 21:21:29 36° NNE 21:21:29 36° NNE visible
28 Mar 3.5 21:22:13 10° N 21:25:21 49° N 21:25:21 49° N visible
29 Mar 3.2 21:25:39 10° NNW 21:29:16 63° NW 21:29:16 63° NW visible
30 Mar 4.8 19:54:12 10° NE 19:55:52 12° ENE 19:56:57 11° E visible
30 Mar 3.4 21:29:08 10° NNW 21:33:12 55° W 21:33:13 55° W visible
31 Mar 4.6 19:56:51 10° NNE 19:59:26 16° ENE 20:00:57 13° E visible
31 Mar 4.0 21:32:41 10° NNW 21:36:34 40° W 21:37:13 37° WSW visible
01 Apr 4.3 19:59:49 10° NNE 20:02:57 21° ENE 20:05:00 15° ESE visible
01 Apr 4.6 21:36:18 10° NNW 21:39:56 30° W 21:41:17 24° SW visible
02 Apr 3.9 20:02:55 10° NNE 20:06:28 27° ENE 20:09:07 14° SE visible
02 Apr 5.1 21:40:00 10° NW 21:43:16 23° W 21:45:23 15° SW visible
03 Apr 3.5 20:06:07 10° N 20:09:56 35° ENE 20:13:18 12° SE visible
03 Apr 5.5 21:43:51 10° NW 21:46:35 17° W 21:49:18 10° SW visible
04 Apr 3.2 20:09:24 10° N 20:13:24 47° ENE 20:17:22 10° SSE visible
04 Apr 5.8 21:47:56 10° WNW 21:49:52 13° W 21:51:47 10° WSW visible
05 Apr 2.8 20:12:43 10° N 20:16:51 64° E 20:20:55 10° SSE visible
